Time,TemperatureF,DewpointF,PressureIn,WindDirection,WindDirectionDegrees,WindSpeedMPH,WindSpeedGustMPH,Humidity,HourlyPrecipIn,Conditions,Clouds,dailyrainin,SolarRadiationWatts/m^2,SoftwareType,DateUTC
2013-05-10 00:01:00,50.0,48.0,-100.00,NNW,328,1.0,4.0,93,-99.99,,,0.00,0.000000,,2013-05-10 07:01:00,
2013-05-10 00:11:00,50.0,48.0,-100.00,NNW,328,1.0,4.0,93,-99.99,,,0.00,0.000000,,2013-05-10 07:11:00,
2013-05-10 01:42:00,50.0,48.0,-100.00,West,268,0.0,2.0,94,-99.99,,,0.00,0.000000,,2013-05-10 08:42:00,
2013-05-10 01:52:00,50.0,48.0,-100.00,West,268,0.0,2.0,94,-99.99,,,0.00,0.000000,,2013-05-10 08:52:00,
2013-05-10 02:01:00,50.0,48.0,-100.00,West,268,0.0,2.0,94,-99.99,,,0.00,0.000000,,2013-05-10 09:01:00,
2013-05-10 02:11:00,50.0,48.0,-100.00,West,268,0.0,2.0,94,-99.99,,,0.00,0.000000,,2013-05-10 09:11:00,
2013-05-10 02:42:00,50.0,48.0,-100.00,SE,142,1.0,3.0,94,-99.99,,,0.00,0.000000,,2013-05-10 09:42:00,
2013-05-10 02:52:00,50.0,48.0,-100.00,SE,142,1.0,3.0,94,-99.99,,,0.00,0.000000,,2013-05-10 09:52:00,
2013-05-10 03:02:00,50.0,48.0,-100.00,SE,142,1.0,3.0,94,-99.99,,,0.00,0.000000,,2013-05-10 10:02:00,
2013-05-10 03:12:00,50.0,48.0,-100.00,SE,142,1.0,3.0,94,-99.99,,,0.00,0.000000,,2013-05-10 10:12:00,
2013-05-10 03:42:00,50.0,48.0,-100.00,ESE,117,2.0,4.0,94,-99.99,,,0.00,0.000000,,2013-05-10 10:42:00,
2013-05-10 03:52:00,50.0,48.0,-100.00,ESE,117,2.0,4.0,94,-99.99,,,0.00,0.000000,,2013-05-10 10:52:00,
2013-05-10 04:02:00,50.0,48.0,-100.00,ESE,117,2.0,4.0,94,-99.99,,,0.00,0.000000,,2013-05-10 11:02:00,
2013-05-10 04:12:00,50.0,48.0,-100.00,ESE,117,2.0,4.0,94,-99.99,,,0.00,0.000000,,2013-05-10 11:12:00,
2013-05-10 04:42:00,50.0,48.0,-100.00,West,268,1.0,2.0,94,-99.99,,,0.00,0.000000,,2013-05-10 11:42:00,
2013-05-10 04:51:00,50.0,48.0,-100.00,West,268,1.0,2.0,94,-99.99,,,0.00,0.000000,,2013-05-10 11:51:00,
2013-05-10 05:01:00,50.0,48.0,-100.00,West,268,1.0,2.0,94,-99.99,,,0.00,0.000000,,2013-05-10 12:01:00,
2013-05-10 05:11:00,50.0,48.0,-100.00,West,268,1.0,2.0,94,-99.99,,,0.00,0.000000,,2013-05-10 12:11:00,
2013-05-10 05:42:00,49.0,48.0,-100.00,West,274,1.0,2.0,95,-99.99,,,0.00,0.000000,,2013-05-10 12:42:00,
2013-05-10 05:52:00,49.0,48.0,-100.00,West,274,1.0,2.0,95,-99.99,,,0.00,0.000000,,2013-05-10 12:52:00,
2013-05-10 06:01:00,49.0,48.0,-100.00,West,274,1.0,2.0,95,-99.99,,,0.00,0.000000,,2013-05-10 13:01:00,
2013-05-10 06:11:00,49.0,48.0,-100.00,West,274,1.0,2.0,95,-99.99,,,0.00,0.000000,,2013-05-10 13:11:00,
2013-05-10 06:41:00,49.0,48.0,-100.00,South,181,0.0,2.0,95,-99.99,,,0.00,2.790000,,2013-05-10 13:41:00,
2013-05-10 06:52:00,49.0,48.0,-100.00,South,181,0.0,2.0,95,-99.99,,,0.00,2.790000,,2013-05-10 13:52:00,
2013-05-10 07:02:00,49.0,48.0,-100.00,South,181,0.0,2.0,95,-99.99,,,0.00,2.790000,,2013-05-10 14:02:00,
2013-05-10 07:11:00,49.0,48.0,-100.00,South,181,0.0,2.0,95,-99.99,,,0.00,2.790000,,2013-05-10 14:11:00,
2013-05-10 07:15:00,-999.0,-99.9,-100.00,NE,42,1.0,3.0,94,-99.99,,,0.00,25.100000,,2013-05-10 14:15:00,
2013-05-10 07:41:00,49.0,48.0,-100.00,NE,42,1.0,3.0,94,-99.99,,,0.00,25.100000,,2013-05-10 14:41:00,
2013-05-10 07:52:00,49.0,48.0,-100.00,NE,42,1.0,3.0,94,-99.99,,,0.00,25.100000,,2013-05-10 14:52:00,
2013-05-10 08:01:00,49.0,48.0,-100.00,NE,42,1.0,3.0,94,-99.99,,,0.00,25.100000,,2013-05-10 15:01:00,
2013-05-10 09:42:00,50.0,48.0,-100.00,West,276,2.0,6.0,93,-99.99,,,0.00,130.630005,,2013-05-10 16:42:00,
2013-05-10 09:52:00,50.0,48.0,-100.00,West,276,2.0,6.0,93,-99.99,,,0.00,130.630005,,2013-05-10 16:52:00,
2013-05-10 10:02:00,50.0,48.0,-100.00,West,276,2.0,6.0,93,-99.99,,,0.00,130.630005,,2013-05-10 17:02:00,
2013-05-10 10:12:00,50.0,48.0,-100.00,West,276,2.0,6.0,93,-99.99,,,0.00,130.630005,,2013-05-10 17:12:00,
2013-05-10 10:42:00,50.0,48.0,-100.00,West,268,2.0,5.0,93,-99.99,,,0.00,196.529999,,2013-05-10 17:42:00,
2013-05-10 10:52:00,50.0,48.0,-100.00,West,268,2.0,5.0,93,-99.99,,,0.00,196.529999,,2013-05-10 17:52:00,
2013-05-10 11:10:00,-999.0,-99.9,-100.00,West,268,2.0,5.0,93,-99.99,,,0.00,,,2013-05-10 18:10:00,
2013-05-10 11:43:00,51.0,48.0,-100.00,West,279,2.0,5.0,90,-99.99,,,0.00,289.850006,,2013-05-10 18:43:00,
2013-05-10 11:54:00,51.0,48.0,-100.00,West,279,2.0,5.0,90,-99.99,,,0.00,289.850006,,2013-05-10 18:54:00,
2013-05-10 12:02:00,51.0,48.0,-100.00,West,279,2.0,5.0,90,-99.99,,,0.00,289.850006,,2013-05-10 19:02:00,
2013-05-10 12:11:00,51.0,48.0,-100.00,West,279,2.0,5.0,90,-99.99,,,0.00,289.850006,,2013-05-10 19:11:00,
2013-05-10 12:42:00,52.0,49.0,-100.00,WNW,299,3.0,6.0,87,-99.99,,,0.00,469.410004,,2013-05-10 19:42:00,
2013-05-10 12:52:00,52.0,49.0,-100.00,WNW,299,3.0,6.0,87,-99.99,,,0.00,469.410004,,2013-05-10 19:52:00,
2013-05-10 13:01:00,52.0,49.0,-100.00,WNW,299,3.0,6.0,87,-99.99,,,0.00,469.410004,,2013-05-10 20:01:00,
2013-05-10 13:11:00,52.0,49.0,-100.00,WNW,299,3.0,6.0,87,-99.99,,,0.00,469.410004,,2013-05-10 20:11:00,
2013-05-10 13:41:00,54.0,49.0,-100.00,WNW,288,4.0,10.0,83,-99.99,,,0.00,903.030029,,2013-05-10 20:41:00,
2013-05-10 13:52:00,54.0,49.0,-100.00,WNW,288,4.0,10.0,83,-99.99,,,0.00,903.030029,,2013-05-10 20:52:00,
2013-05-10 14:01:00,54.0,49.0,-100.00,WNW,288,4.0,10.0,83,-99.99,,,0.00,903.030029,,2013-05-10 21:01:00,
2013-05-10 14:11:00,54.0,49.0,-100.00,WNW,288,4.0,10.0,83,-99.99,,,0.00,903.030029,,2013-05-10 21:11:00,
2013-05-10 15:42:00,53.0,49.0,-100.00,WNW,293,3.0,10.0,83,-99.99,,,0.00,439.429993,,2013-05-10 22:42:00,
2013-05-10 15:52:00,53.0,49.0,-100.00,WNW,293,3.0,10.0,83,-99.99,,,0.00,439.429993,,2013-05-10 22:52:00,
2013-05-10 16:02:00,53.0,49.0,-100.00,WNW,293,3.0,10.0,83,-99.99,,,0.00,439.429993,,2013-05-10 23:02:00,
2013-05-10 16:12:00,53.0,49.0,-100.00,WNW,293,3.0,10.0,83,-99.99,,,0.00,439.429993,,2013-05-10 23:12:00,
2013-05-10 16:41:00,53.0,48.0,-100.00,WNW,298,3.0,7.0,82,-99.99,,,0.00,412.459991,,2013-05-10 23:41:00,
2013-05-10 16:52:00,53.0,48.0,-100.00,WNW,298,3.0,7.0,82,-99.99,,,0.00,412.459991,,2013-05-10 23:52:00,
2013-05-10 17:01:00,53.0,48.0,-100.00,WNW,298,3.0,7.0,82,-99.99,,,0.00,412.459991,,2013-05-11 00:01:00,
2013-05-10 17:11:00,53.0,48.0,-100.00,WNW,298,3.0,7.0,82,-99.99,,,0.00,412.459991,,2013-05-11 00:11:00,
2013-05-10 18:31:00,53.0,48.0,-100.00,SW,223,3.0,6.0,84,-99.99,,,0.00,94.720001,,2013-05-11 01:31:00,
2013-05-10 18:42:00,53.0,48.0,-100.00,SW,223,3.0,6.0,84,-99.99,,,0.00,94.720001,,2013-05-11 01:42:00,
2013-05-10 18:52:00,53.0,48.0,-100.00,SW,223,3.0,6.0,84,-99.99,,,0.00,94.720001,,2013-05-11 01:52:00,
2013-05-10 19:02:00,53.0,48.0,-100.00,SW,223,3.0,6.0,84,-99.99,,,0.00,94.720001,,2013-05-11 02:02:00,
2013-05-10 19:11:00,53.0,48.0,-100.00,SW,223,3.0,6.0,84,-99.99,,,0.00,94.720001,,2013-05-11 02:11:00,
2013-05-10 19:42:00,52.0,49.0,-100.00,SW,218,2.0,4.0,86,-99.99,,,0.00,47.070000,,2013-05-11 02:42:00,
2013-05-10 19:52:00,52.0,49.0,-100.00,SW,218,2.0,4.0,86,-99.99,,,0.00,47.070000,,2013-05-11 02:52:00,
2013-05-10 20:01:00,52.0,49.0,-100.00,SW,218,2.0,4.0,86,-99.99,,,0.00,47.070000,,2013-05-11 03:01:00,
2013-05-10 20:11:00,52.0,49.0,-100.00,SW,218,2.0,4.0,86,-99.99,,,0.00,47.070000,,2013-05-11 03:11:00,
2013-05-10 20:42:00,52.0,49.0,-100.00,SSW,197,1.0,3.0,87,-99.99,,,0.00,7.790000,,2013-05-11 03:42:00,
2013-05-10 20:53:00,52.0,49.0,-100.00,SSW,197,1.0,3.0,87,-99.99,,,0.00,7.790000,,2013-05-11 03:53:00,
2013-05-10 21:02:00,52.0,49.0,-100.00,SSW,197,1.0,3.0,87,-99.99,,,0.00,7.790000,,2013-05-11 04:02:00,
2013-05-10 21:12:00,52.0,49.0,-100.00,SSW,197,1.0,3.0,87,-99.99,,,0.00,7.790000,,2013-05-11 04:12:00,
2013-05-10 21:43:00,52.0,49.0,-100.00,ENE,77,2.0,3.0,86,-99.99,,,0.00,0.000000,,2013-05-11 04:43:00,
2013-05-10 21:52:00,52.0,49.0,-100.00,ENE,77,2.0,3.0,86,-99.99,,,0.00,0.000000,,2013-05-11 04:52:00,
2013-05-10 22:02:00,52.0,49.0,-100.00,ENE,77,2.0,3.0,86,-99.99,,,0.00,0.000000,,2013-05-11 05:02:00,
2013-05-10 22:11:00,52.0,49.0,-100.00,ENE,77,2.0,3.0,86,-99.99,,,0.00,0.000000,,2013-05-11 05:11:00,
2013-05-10 22:32:00,52.0,49.0,-100.00,West,280,1.0,3.0,89,-99.99,,,-99.99,0.000000,,2013-05-11 05:32:00,
2013-05-10 22:42:00,52.0,49.0,-100.00,West,280,1.0,3.0,89,-99.99,,,-99.99,0.000000,,2013-05-11 05:42:00,
2013-05-10 22:52:00,52.0,49.0,-100.00,West,280,1.0,3.0,89,-99.99,,,-99.99,0.000000,,2013-05-11 05:52:00,
2013-05-10 23:02:00,52.0,49.0,-100.00,West,280,1.0,3.0,89,-99.99,,,-99.99,0.000000,,2013-05-11 06:02:00,
2013-05-10 23:12:00,52.0,49.0,-100.00,West,280,1.0,3.0,89,-99.99,,,-99.99,0.000000,,2013-05-11 06:12:00,
2013-05-10 23:42:00,52.0,49.0,-100.00,WSW,246,1.0,3.0,89,-99.99,,,0.00,0.000000,,2013-05-11 06:42:00,
2013-05-10 23:52:00,52.0,49.0,-100.00,WSW,246,1.0,3.0,89,-99.99,,,0.00,0.000000,,2013-05-11 06:52:00,